JBU450 MDPC-KFLL

Flight info

Callsign JBU450
Flight time N/A
Altitude 34000
Route MALVN2W MALVN Y396 RUMFO Y441 ZQA OLAHS3
Aircraft A321/M-SDE3FGHIRWY/LB1

Departure

Time 2026-05-01 10:53
Airport Punta Cana International Airport (MDPC)

Arrival

Time N/A
Airport Fort Lauderdale Hollywood International Airport (KFLL)
Time Latitude Longitude Altitude Speed Heading
2026-05-01 10:27 18.56433 -68.36916 53 ft 0 kts 83°
2026-05-01 10:43 18.56433 -68.36922 51 ft 4 kts 84°
2026-05-01 10:43 18.56431 -68.36951 47 ft 4 kts 90°
2026-05-01 10:44 18.56431 -68.36979 47 ft 3 kts 84°
2026-05-01 10:44 18.56429 -68.36998 48 ft 4 kts 121°
2026-05-01 10:44 18.56446 -68.37009 48 ft 4 kts 149°
2026-05-01 10:44 18.56446 -68.37010 48 ft 4 kts 152°
2026-05-01 10:45 18.56422 -68.37010 52 ft 4 kts 186°
2026-05-01 10:45 18.56393 -68.37007 50 ft 4 kts 353°
2026-05-01 10:45 18.56366 -68.37005 48 ft 3 kts 353°
2026-05-01 10:45 18.56363 -68.37004 48 ft 0 kts 353°
2026-05-01 10:47 18.56392 -68.37008 51 ft 8 kts 353°
2026-05-01 10:47 18.56454 -68.37015 47 ft 9 kts 353°
2026-05-01 10:48 18.56503 -68.37044 53 ft 7 kts 281°
2026-05-01 10:48 18.56492 -68.37107 53 ft 12 kts 263°
2026-05-01 10:48 18.56485 -68.37201 53 ft 13 kts 265°
2026-05-01 10:48 18.56479 -68.37298 53 ft 14 kts 266°
2026-05-01 10:49 18.56471 -68.37414 54 ft 18 kts 265°
2026-05-01 10:49 18.56460 -68.37543 54 ft 18 kts 264°
2026-05-01 10:49 18.56449 -68.37666 55 ft 16 kts 265°
2026-05-01 10:49 18.56462 -68.37774 51 ft 13 kts 310°
2026-05-01 10:50 18.56538 -68.37784 55 ft 12 kts 350°
2026-05-01 10:50 18.56622 -68.37798 51 ft 13 kts 351°
2026-05-01 10:50 18.56696 -68.37824 55 ft 6 kts 287°
2026-05-01 10:50 18.56694 -68.37855 55 ft 5 kts 303°
2026-05-01 10:51 18.56723 -68.37911 55 ft 13 kts 293°
2026-05-01 10:51 18.56763 -68.38008 54 ft 15 kts 294°
2026-05-01 10:51 18.56809 -68.38111 53 ft 16 kts 296°
2026-05-01 10:51 18.56860 -68.38217 50 ft 13 kts 297°
2026-05-01 10:52 18.56929 -68.38265 53 ft 12 kts 346°
2026-05-01 10:52 18.57012 -68.38275 53 ft 12 kts 15°
2026-05-01 10:52 18.57058 -68.38201 53 ft 13 kts 76°
2026-05-01 10:52 18.57094 -68.38057 52 ft 48 kts 75°
2026-05-01 10:53 18.57261 -68.37437 50 ft 125 kts 73°
2026-05-01 10:53 18.57576 -68.36349 133 ft 177 kts 72°
2026-05-01 10:53 18.57940 -68.35174 1071 ft 166 kts 72°
2026-05-01 10:53 18.58271 -68.33983 1793 ft 179 kts 76°
2026-05-01 10:54 18.58627 -68.32653 2100 ft 197 kts 75°
2026-05-01 10:54 18.58796 -68.31139 2248 ft 220 kts 100°
2026-05-01 10:54 18.58140 -68.29612 2437 ft 243 kts 131°
2026-05-01 10:54 18.56804 -68.28436 2854 ft 256 kts 141°
2026-05-01 10:55 18.55372 -68.27288 3470 ft 261 kts 141°
2026-05-01 10:55 18.53823 -68.26259 4065 ft 268 kts 160°
2026-05-01 10:55 18.51957 -68.26168 4665 ft 276 kts 194°
2026-05-01 10:55 18.50245 -68.27121 4955 ft 282 kts 217°
2026-05-01 10:56 18.48773 -68.28475 5003 ft 282 kts 226°
2026-05-01 10:56 18.47729 -68.30206 5007 ft 281 kts 249°
2026-05-01 10:56 18.47256 -68.32209 5213 ft 285 kts 265°
2026-05-01 10:56 18.47199 -68.34291 5964 ft 284 kts 269°
2026-05-01 10:57 18.47139 -68.36366 6671 ft 283 kts 268°
2026-05-01 10:57 18.47059 -68.38410 7317 ft 284 kts 268°
2026-05-01 10:57 18.46968 -68.40489 7956 ft 285 kts 267°
2026-05-01 10:57 18.46877 -68.42578 8604 ft 286 kts 267°
2026-05-01 10:58 18.46794 -68.44674 9228 ft 288 kts 267°
2026-05-01 10:58 18.46715 -68.46789 9835 ft 290 kts 267°
2026-05-01 10:58 18.46635 -68.48927 10270 ft 299 kts 267°
2026-05-01 10:58 18.46551 -68.51185 10406 ft 318 kts 268°
2026-05-01 10:59 18.46657 -68.53578 10527 ft 337 kts 277°
2026-05-01 10:59 18.47193 -68.56046 10643 ft 355 kts 287°
2026-05-01 10:59 18.48187 -68.58494 10760 ft 372 kts 295°
2026-05-01 10:59 18.49350 -68.60969 11048 ft 381 kts 295°
2026-05-01 11:00 18.50525 -68.63475 11534 ft 384 kts 295°
2026-05-01 11:00 18.51710 -68.66006 12067 ft 386 kts 295°
2026-05-01 11:00 18.52901 -68.68553 12619 ft 388 kts 295°
2026-05-01 11:00 18.54088 -68.71109 13188 ft 389 kts 295°
2026-05-01 11:01 18.55281 -68.73679 13746 ft 391 kts 295°
2026-05-01 11:01 18.56480 -68.76260 14250 ft 393 kts 294°
2026-05-01 11:01 18.57668 -68.78816 14736 ft 395 kts 294°
2026-05-01 11:01 18.58876 -68.81417 15233 ft 397 kts 294°
2026-05-01 11:02 18.60091 -68.84037 15721 ft 399 kts 294°
2026-05-01 11:02 18.61311 -68.86668 16211 ft 401 kts 294°
2026-05-01 11:02 18.62541 -68.89325 16680 ft 404 kts 294°
2026-05-01 11:02 18.63773 -68.91992 17144 ft 406 kts 293°
2026-05-01 11:03 18.65019 -68.94677 17584 ft 409 kts 293°
2026-05-01 11:03 18.66274 -68.97380 17998 ft 412 kts 293°
2026-05-01 11:03 18.67536 -69.00102 18390 ft 414 kts 293°
2026-05-01 11:03 18.68803 -69.02841 18743 ft 416 kts 293°
2026-05-01 11:04 18.70073 -69.05590 19115 ft 418 kts 292°
2026-05-01 11:04 18.71354 -69.08357 19483 ft 420 kts 292°
2026-05-01 11:04 18.72637 -69.11127 19821 ft 422 kts 294°
2026-05-01 11:04 18.73932 -69.13920 20181 ft 424 kts 292°
2026-05-01 11:05 18.75224 -69.16715 20534 ft 425 kts 292°
2026-05-01 11:05 18.76504 -69.19492 20882 ft 427 kts 292°
2026-05-01 11:05 18.77806 -69.22320 21205 ft 429 kts 292°
2026-05-01 11:05 18.79112 -69.25161 21528 ft 431 kts 292°
2026-05-01 11:06 18.80422 -69.28009 21858 ft 433 kts 292°
2026-05-01 11:06 18.81741 -69.30871 22192 ft 434 kts 292°
2026-05-01 11:06 18.83065 -69.33740 22507 ft 436 kts 292°
2026-05-01 11:07 18.85728 -69.39518 23143 ft 440 kts 292°
2026-05-01 11:07 18.87065 -69.42427 23459 ft 441 kts 291°
2026-05-01 11:07 18.88409 -69.45353 23737 ft 443 kts 292°
2026-05-01 11:07 18.89755 -69.48281 24010 ft 444 kts 292°
2026-05-01 11:08 18.91087 -69.51176 24286 ft 444 kts 292°
2026-05-01 11:08 18.92433 -69.54107 24577 ft 445 kts 292°
2026-05-01 11:08 18.95135 -69.59992 25178 ft 445 kts 292°
2026-05-01 11:09 18.96482 -69.62936 25473 ft 445 kts 292°
2026-05-01 11:09 18.97827 -69.65885 25773 ft 446 kts 292°
2026-05-01 11:09 18.99174 -69.68831 26061 ft 446 kts 292°
2026-05-01 11:10 19.01865 -69.74697 26875 ft 440 kts 292°
2026-05-01 11:10 19.03192 -69.77596 27291 ft 437 kts 292°
2026-05-01 11:10 19.04508 -69.80481 27715 ft 434 kts 292°
2026-05-01 11:10 19.05812 -69.83340 28126 ft 431 kts 292°
2026-05-01 11:11 19.07098 -69.86157 28532 ft 429 kts 292°
2026-05-01 11:11 19.08407 -69.89024 28962 ft 426 kts 292°
2026-05-01 11:11 19.09688 -69.91833 29376 ft 424 kts 292°
2026-05-01 11:11 19.10949 -69.94598 29773 ft 421 kts 292°
2026-05-01 11:12 19.12214 -69.97383 30166 ft 419 kts 291°
2026-05-01 11:12 19.13470 -70.00152 30496 ft 417 kts 291°
2026-05-01 11:12 19.14721 -70.02906 30794 ft 415 kts 291°
2026-05-01 11:12 19.15972 -70.05656 31074 ft 414 kts 291°
2026-05-01 11:13 19.17219 -70.08399 31356 ft 414 kts 291°
2026-05-01 11:13 19.18463 -70.11138 31640 ft 413 kts 291°
2026-05-01 11:13 19.19705 -70.13873 31925 ft 412 kts 291°
2026-05-01 11:13 19.20943 -70.16602 32198 ft 411 kts 290°
2026-05-01 11:14 19.22173 -70.19316 32495 ft 410 kts 290°
2026-05-01 11:14 19.23403 -70.22031 32763 ft 409 kts 290°
2026-05-01 11:14 19.24634 -70.24741 33031 ft 408 kts 290°
2026-05-01 11:14 19.25863 -70.27445 33296 ft 407 kts 290°
2026-05-01 11:15 19.27073 -70.30110 33559 ft 406 kts 290°
2026-05-01 11:15 19.28291 -70.32799 33820 ft 405 kts 290°
2026-05-01 11:15 19.29504 -70.35485 33988 ft 405 kts 290°
2026-05-01 11:15 19.30721 -70.38182 34022 ft 407 kts 290°
2026-05-01 11:16 19.33166 -70.43599 34014 ft 407 kts 290°
2026-05-01 11:16 19.35611 -70.49012 34005 ft 408 kts 290°
2026-05-01 11:17 19.38052 -70.54422 34004 ft 408 kts 290°
2026-05-01 11:17 19.40811 -70.59718 34004 ft 418 kts 301°
2026-05-01 11:18 19.42828 -70.61978 34003 ft 429 kts 312°
2026-05-01 11:18 19.45231 -70.63900 34006 ft 434 kts 316°
2026-05-01 11:18 19.50095 -70.67645 34012 ft 435 kts 316°
2026-05-01 11:19 19.54987 -70.71439 34021 ft 436 kts 316°
2026-05-01 11:19 19.59869 -70.75236 34017 ft 436 kts 316°
2026-05-01 11:20 19.64762 -70.79045 34013 ft 436 kts 316°
2026-05-01 11:20 19.69659 -70.82855 34012 ft 437 kts 316°
2026-05-01 11:21 19.74559 -70.86669 34020 ft 438 kts 316°
2026-05-01 11:21 19.79470 -70.90497 34027 ft 438 kts 316°
2026-05-01 11:22 19.84379 -70.94335 34034 ft 438 kts 316°
2026-05-01 11:22 19.89283 -70.98170 34032 ft 438 kts 316°
2026-05-01 11:23 19.94170 -71.01985 34030 ft 439 kts 316°
2026-05-01 11:23 19.99123 -71.05858 34024 ft 439 kts 317°
2026-05-01 11:24 20.04007 -71.09682 34027 ft 439 kts 317°
2026-05-01 11:25 20.11397 -71.15464 34023 ft 440 kts 317°
2026-05-01 11:25 20.18776 -71.21261 34025 ft 440 kts 317°
2026-05-01 11:26 20.26170 -71.27074 34017 ft 440 kts 317°
2026-05-01 11:27 20.31094 -71.30946 34019 ft 441 kts 318°
2026-05-01 11:27 20.36031 -71.34826 34015 ft 441 kts 318°
2026-05-01 11:28 20.40925 -71.38765 34017 ft 438 kts 313°
2026-05-01 11:28 20.44889 -71.43590 34014 ft 432 kts 304°
2026-05-01 11:29 20.50514 -71.51133 34013 ft 434 kts 304°
2026-05-01 11:30 20.56157 -71.58701 33992 ft 437 kts 309°
2026-05-01 11:30 20.59980 -71.63843 34025 ft 447 kts 309°
2026-05-01 11:31 20.63232 -71.68221 34017 ft 450 kts 309°
2026-05-01 11:31 20.67124 -71.73466 34010 ft 451 kts 309°
2026-05-01 11:32 20.71013 -71.78711 34012 ft 451 kts 309°
2026-05-01 11:32 20.74914 -71.83973 34011 ft 452 kts 310°
2026-05-01 11:33 20.78819 -71.89246 34025 ft 452 kts 310°
2026-05-01 11:33 20.82720 -71.94521 34025 ft 453 kts 310°
2026-05-01 11:34 20.86633 -71.99814 34025 ft 454 kts 310°
2026-05-01 11:34 20.90542 -72.05116 34028 ft 454 kts 310°
2026-05-01 11:35 20.94450 -72.10427 34033 ft 454 kts 310°
2026-05-01 11:35 20.98367 -72.15732 34030 ft 454 kts 310°
2026-05-01 11:36 21.02278 -72.21047 34032 ft 454 kts 310°
2026-05-01 11:36 21.06181 -72.26351 34035 ft 454 kts 310°
2026-05-01 11:37 21.10087 -72.31673 34035 ft 454 kts 310°
2026-05-01 11:37 21.13988 -72.36981 34040 ft 454 kts 310°
2026-05-01 11:38 21.17893 -72.42302 34041 ft 454 kts 310°
2026-05-01 11:38 21.21793 -72.47628 34042 ft 454 kts 310°
2026-05-01 11:39 21.25680 -72.52946 34042 ft 453 kts 309°
2026-05-01 11:39 21.29572 -72.58270 34041 ft 453 kts 309°
2026-05-01 11:40 21.33465 -72.63588 34041 ft 453 kts 309°
2026-05-01 11:40 21.37344 -72.68907 34037 ft 453 kts 309°
2026-05-01 11:41 21.41249 -72.74254 34040 ft 452 kts 309°
2026-05-01 11:41 21.45107 -72.79542 34039 ft 452 kts 309°
2026-05-01 11:42 21.49006 -72.84897 34037 ft 452 kts 309°
2026-05-01 11:42 21.52848 -72.90195 34033 ft 452 kts 309°
2026-05-01 11:43 21.56734 -72.95556 34034 ft 452 kts 309°
2026-05-01 11:43 21.60598 -73.00888 34033 ft 452 kts 309°
2026-05-01 11:44 21.66370 -73.08857 34034 ft 452 kts 309°